Regional Weather Roundup
Issued by NWS

Home | Current Version | Previous Version | Graphics & Text | Print | Product List | Glossary On
Versions: 1 2 3 4 5 6 7 8 9 10 11 12 13 14 15 16 17 18 19 20 21 22 23 24 25 26 27 28 29 30 31 32 33 34 35 36 37 38 39 40 41 42 43 44 45 46 47 48 49 50
000
ASUS43 KFSD 232210
RWRSD

WEATHER ROUNDUP FOR SOUTH DAKOTA
NATIONAL WEATHER SERVICE SIOUX FALLS SD
500 PM CDT SUN APR 23 2017

NOTE: "FAIR" INDICATES FEW OR NO CLOUDS BELOW 12,000 FEET WITH NO
SIGNIFICANT WEATHER AND/OR OBSTRUCTIONS TO VISIBILITY.


SDZ001>005-009-010-012>017-232300-
NORTHWEST AND NORTH CENTRAL SOUTH DAKOTA

CITY           SKY/WX    TMP DP  RH WIND       PRES   REMARKS
BUFFALO          N/A     53  39  59 NE16G24   29.68F
FAITH            N/A     64  43  46 NE12      29.70F
MOBRIDGE       SUNNY     69  39  33 E13       29.68F
$$

SDZ012>016-024>037-041>051-057-063-072>074-232300-
SOUTHWEST AND SOUTH CENTRAL SOUTH DAKOTA

CITY           SKY/WX    TMP DP  RH WIND       PRES   REMARKS
RAPID CTY ARPT CLOUDY    70  42  36 NE13      29.68F
PIERRE         SUNNY     77  35  21 SW15G24   29.64F
CUSTER         SUNNY     65  25  22 SW8       29.75F
ELLSWORTH AFB  CLOUDY    68  41  37 NE13      29.68F
PHILIP         SUNNY     76  36  23 W12       29.65F
PINE RIDGE     CLOUDY    75  32  20 SW13G25   29.68F
SPEARFISH      FAIR      61  43  51 E12G18    29.72F
WINNER         FAIR      76  32  20 SW22G31   29.72F
$$

SDZ004>011-016>023-039-040-232300-
NORTHEAST SOUTH DAKOTA

CITY           SKY/WX    TMP DP  RH WIND       PRES   REMARKS
ABERDEEN       SUNNY     70  31  23 S8G20     29.77F
WATERTOWN      SUNNY     69  33  26 SW16G26   29.80F
BROOKINGS      CLOUDY    70  30  22 S26G33    29.82F
SISSETON         N/A     65  41  41 S9G17     29.81F
$$

SDZ017-020-022-023-036>040-048>070-232300-
SOUTHEAST SOUTH DAKOTA

CITY           SKY/WX    TMP DP  RH WIND       PRES   REMARKS
SIOUX FALLS    PTSUNNY   70  31  23 SW22G38   29.84F
HURON          SUNNY     73  30  20 S21G29    29.76F
CHAMBERLAIN    CLOUDY    76  32  20 S22G30    29.73F
MITCHELL       CLOUDY    73  26  17 S28G36    29.78F
YANKTON        CLOUDY    73  27  17 S28G38    29.81F
$$

ABBREVIATIONS USED IN REMARKS
   TC - TEMPERATURE IN CELSIUS
  WCI - WIND CHILL INDEX
   HX - HEAT INDEX
  VSB - VISIBILITY




USA.gov is the U.S. government's official web portal to all federal, state and local government web resources and services.